Time,TemperatureF,DewpointF,PressureIn,WindDirection,WindDirectionDegrees,WindSpeedMPH,WindSpeedGustMPH,Humidity,HourlyPrecipIn,Conditions,Clouds,dailyrainin,SoftwareType,DateUTC
2013-04-02 00:15:00,46.2,41.9,29.83,NE,45,0.0,-999.0,85,-99.99,,,0.00,Acu-Link.com,2013-04-02 04:15:00,
2013-04-02 00:30:00,45.7,41.8,29.84,NE,45,2.2,-999.0,86,-99.99,,,0.00,Acu-Link.com,2013-04-02 04:30:00,
2013-04-02 00:45:00,45.3,41.4,29.83,NE,45,0.0,-999.0,86,-99.99,,,0.00,Acu-Link.com,2013-04-02 04:45:00,
2013-04-02 01:00:00,44.8,40.9,29.83,ENE,67,1.7,-999.0,86,-99.99,,,0.00,Acu-Link.com,2013-04-02 05:00:00,
2013-04-02 01:15:00,44.2,40.6,29.83,NE,45,0.0,-999.0,87,-99.99,,,0.00,Acu-Link.com,2013-04-02 05:15:00,
2013-04-02 01:30:00,43.9,40.3,29.83,NE,45,0.0,-999.0,87,-99.99,,,0.00,Acu-Link.com,2013-04-02 05:30:00,
2013-04-02 02:16:00,42.8,39.5,29.83,ENE,67,1.1,-999.0,88,-99.99,,,0.00,Acu-Link.com,2013-04-02 06:16:00,
2013-04-02 02:31:00,42.3,39.6,29.82,NE,45,1.7,-999.0,90,-99.99,,,0.00,Acu-Link.com,2013-04-02 06:31:00,
2013-04-02 02:47:00,42.3,39.3,29.83,ENE,67,1.7,-999.0,89,-99.99,,,0.00,Acu-Link.com,2013-04-02 06:47:00,
2013-04-02 03:02:00,42.3,39.6,29.83,ENE,67,0.0,-999.0,90,-99.99,,,0.00,Acu-Link.com,2013-04-02 07:02:00,
2013-04-02 03:17:00,41.9,39.2,29.84,ENE,67,0.0,-999.0,90,-99.99,,,0.00,Acu-Link.com,2013-04-02 07:17:00,
2013-04-02 03:32:00,41.9,39.7,29.84,WSW,247,1.1,-999.0,92,-99.99,,,0.00,Acu-Link.com,2013-04-02 07:32:00,
2013-04-02 03:47:00,41.9,39.2,29.84,ESE,112,1.1,-999.0,90,-99.99,,,0.00,Acu-Link.com,2013-04-02 07:47:00,
2013-04-02 04:02:00,42.8,38.0,29.85,SSW,202,1.7,-999.0,83,-99.99,,,0.00,Acu-Link.com,2013-04-02 08:02:00,
2013-04-02 04:18:00,43.0,38.2,29.85,SSW,202,1.7,-999.0,83,-99.99,,,0.00,Acu-Link.com,2013-04-02 08:18:00,
2013-04-02 04:33:00,44.2,38.1,29.85,SW,225,1.7,-999.0,79,-99.99,,,0.00,Acu-Link.com,2013-04-02 08:33:00,
2013-04-02 04:49:00,44.6,38.2,29.87,SW,225,1.7,-999.0,78,-99.99,,,0.00,Acu-Link.com,2013-04-02 08:49:00,
2013-04-02 05:04:00,44.8,37.7,29.86,SW,225,1.7,-999.0,76,-99.99,,,0.00,Acu-Link.com,2013-04-02 09:04:00,
2013-04-02 05:19:00,44.8,37.7,29.87,SW,225,1.7,-999.0,76,-99.99,,,0.00,Acu-Link.com,2013-04-02 09:19:00,
2013-04-02 05:34:00,44.6,36.8,29.87,SSE,157,2.2,-999.0,74,-99.99,,,0.00,Acu-Link.com,2013-04-02 09:34:00,
2013-04-02 05:49:00,44.6,36.1,29.89,WSW,247,1.7,-999.0,72,-99.99,,,0.00,Acu-Link.com,2013-04-02 09:49:00,
2013-04-02 06:04:00,44.4,35.6,29.90,SW,225,2.2,-999.0,71,-99.99,,,0.00,Acu-Link.com,2013-04-02 10:04:00,
2013-04-02 06:19:00,44.2,35.0,29.90,WSW,247,2.2,-999.0,70,-99.99,,,0.00,Acu-Link.com,2013-04-02 10:19:00,
2013-04-02 06:34:00,43.9,34.4,29.90,SW,225,2.2,-999.0,69,-99.99,,,0.00,Acu-Link.com,2013-04-02 10:34:00,
2013-04-02 06:50:00,43.5,34.4,29.91,SW,225,2.7,-999.0,70,-99.99,,,0.00,Acu-Link.com,2013-04-02 10:50:00,
2013-04-02 07:05:00,43.3,33.8,29.93,SW,225,1.1,-999.0,69,-99.99,,,0.00,Acu-Link.com,2013-04-02 11:05:00,
2013-04-02 07:20:00,43.0,32.8,29.93,SW,225,1.7,-999.0,67,-99.99,,,0.00,Acu-Link.com,2013-04-02 11:20:00,
2013-04-02 07:35:00,42.8,32.2,29.94,WSW,247,1.7,-999.0,66,-99.99,,,0.00,Acu-Link.com,2013-04-02 11:35:00,
2013-04-02 07:50:00,42.6,31.3,29.93,SW,225,1.7,-999.0,64,-99.99,,,0.00,Acu-Link.com,2013-04-02 11:50:00,
2013-04-02 08:06:00,41.9,32.8,29.93,ENE,67,0.0,-999.0,70,-99.99,,,0.00,Acu-Link.com,2013-04-02 12:06:00,
2013-04-02 08:21:00,41.7,33.7,29.94,ENE,67,1.1,-999.0,73,-99.99,,,0.00,Acu-Link.com,2013-04-02 12:21:00,
2013-04-02 08:36:00,42.6,34.6,29.95,ENE,67,1.1,-999.0,73,-99.99,,,0.00,Acu-Link.com,2013-04-02 12:36:00,
2013-04-02 09:06:00,46.6,32.2,29.97,SSW,202,1.7,-999.0,57,-99.99,,,0.00,Acu-Link.com,2013-04-02 13:06:00,
2013-04-02 09:37:00,54.5,33.6,29.97,SE,135,2.2,-999.0,45,-99.99,,,0.00,Acu-Link.com,2013-04-02 13:37:00,
2013-04-02 09:52:00,54.3,31.1,29.97,South,180,2.2,-999.0,41,-99.99,,,0.00,Acu-Link.com,2013-04-02 13:52:00,
2013-04-02 10:07:00,55.8,32.5,29.97,SW,225,2.2,-999.0,41,-99.99,,,0.00,Acu-Link.com,2013-04-02 14:07:00,
2013-04-02 10:23:00,56.5,30.5,29.97,WSW,247,1.7,-999.0,37,-99.99,,,0.00,Acu-Link.com,2013-04-02 14:23:00,
2013-04-02 10:38:00,55.0,29.2,29.97,SW,225,1.1,-999.0,37,-99.99,,,0.00,Acu-Link.com,2013-04-02 14:38:00,
2013-04-02 10:53:00,55.4,27.5,29.98,SSW,202,2.2,-999.0,34,-99.99,,,0.00,Acu-Link.com,2013-04-02 14:53:00,
2013-04-02 11:08:00,57.2,28.4,29.97,SSW,202,1.7,-999.0,33,-99.99,,,0.00,Acu-Link.com,2013-04-02 15:08:00,
2013-04-02 11:23:00,55.0,26.4,29.97,ESE,112,1.1,-999.0,33,-99.99,,,0.00,Acu-Link.com,2013-04-02 15:23:00,
2013-04-02 11:39:00,57.0,26.7,29.96,ESE,112,2.2,-999.0,31,-99.99,,,0.00,Acu-Link.com,2013-04-02 15:39:00,
2013-04-02 11:54:00,59.2,26.1,29.96,SW,225,1.7,-999.0,28,-99.99,,,0.00,Acu-Link.com,2013-04-02 15:54:00,
2013-04-02 12:09:00,59.5,27.2,29.97,SSW,202,2.7,-999.0,29,-99.99,,,0.00,Acu-Link.com,2013-04-02 16:09:00,
2013-04-02 12:24:00,60.6,26.4,29.96,South,180,1.7,-999.0,27,-99.99,,,0.00,Acu-Link.com,2013-04-02 16:24:00,
2013-04-02 12:39:00,64.2,27.6,29.96,SSW,202,2.7,-999.0,25,-99.99,,,0.00,Acu-Link.com,2013-04-02 16:39:00,
2013-04-02 12:55:00,61.0,25.9,29.95,SSW,202,2.7,-999.0,26,-99.99,,,0.00,Acu-Link.com,2013-04-02 16:55:00,
2013-04-02 13:10:00,61.7,26.5,29.95,South,180,1.7,-999.0,26,-99.99,,,0.00,Acu-Link.com,2013-04-02 17:10:00,
2013-04-02 13:25:00,64.2,-38.3,29.94,SW,225,1.7,-999.0,1,-99.99,,,0.00,Acu-Link.com,2013-04-02 17:25:00,
2013-04-02 13:40:00,64.0,-38.4,29.94,SW,225,2.2,-999.0,1,-99.99,,,0.00,Acu-Link.com,2013-04-02 17:40:00,
2013-04-02 13:55:00,60.8,-40.4,29.93,WSW,247,2.7,-999.0,1,-99.99,,,0.00,Acu-Link.com,2013-04-02 17:55:00,
2013-04-02 14:11:00,61.9,-39.7,29.93,South,180,3.2,-999.0,1,-99.99,,,0.00,Acu-Link.com,2013-04-02 18:11:00,
2013-04-02 14:26:00,65.3,-37.6,29.91,SSW,202,2.2,-999.0,1,-99.99,,,0.00,Acu-Link.com,2013-04-02 18:26:00,
2013-04-02 14:41:00,66.4,-37.0,29.92,SE,135,2.7,-999.0,1,-99.99,,,0.00,Acu-Link.com,2013-04-02 18:41:00,
2013-04-02 14:56:00,65.7,-37.4,29.91,SSE,157,1.7,-999.0,1,-99.99,,,0.00,Acu-Link.com,2013-04-02 18:56:00,
2013-04-02 15:11:00,66.7,-36.8,29.91,South,180,2.2,-999.0,1,-99.99,,,0.00,Acu-Link.com,2013-04-02 19:11:00,
2013-04-02 15:27:00,64.9,-37.9,29.90,SE,135,1.7,-999.0,1,-99.99,,,0.00,Acu-Link.com,2013-04-02 19:27:00,
2013-04-02 15:42:00,65.8,-37.3,29.90,SSE,157,1.7,-999.0,1,-99.99,,,0.00,Acu-Link.com,2013-04-02 19:42:00,
2013-04-02 15:57:00,67.3,-36.4,29.90,ESE,112,1.7,-999.0,1,-99.99,,,0.00,Acu-Link.com,2013-04-02 19:57:00,
2013-04-02 16:12:00,67.8,-36.1,29.88,South,180,2.2,-999.0,1,-99.99,,,0.00,Acu-Link.com,2013-04-02 20:12:00,
2013-04-02 16:28:00,66.4,-37.0,29.88,SE,135,1.1,-999.0,1,-99.99,,,0.00,Acu-Link.com,2013-04-02 20:28:00,
2013-04-02 16:43:00,61.9,21.5,29.88,ESE,112,3.2,-999.0,21,-99.99,,,0.00,Acu-Link.com,2013-04-02 20:43:00,
2013-04-02 16:58:00,62.6,24.3,29.87,ESE,112,1.7,-999.0,23,-99.99,,,0.00,Acu-Link.com,2013-04-02 20:58:00,
2013-04-02 17:13:00,64.4,23.6,29.86,SE,135,1.7,-999.0,21,-99.99,,,0.00,Acu-Link.com,2013-04-02 21:13:00,
2013-04-02 17:28:00,64.2,24.6,29.86,ESE,112,4.7,-999.0,22,-99.99,,,0.00,Acu-Link.com,2013-04-02 21:28:00,
2013-04-02 17:44:00,65.5,24.5,29.86,WSW,247,1.7,-999.0,21,-99.99,,,0.00,Acu-Link.com,2013-04-02 21:44:00,
2013-04-02 17:59:00,63.3,23.8,29.87,SSW,202,1.7,-999.0,22,-99.99,,,0.00,Acu-Link.com,2013-04-02 21:59:00,
2013-04-02 18:14:00,62.8,25.5,29.87,ESE,112,2.2,-999.0,24,-99.99,,,0.00,Acu-Link.com,2013-04-02 22:14:00,
2013-04-02 18:29:00,63.1,24.7,29.87,SSE,157,1.7,-999.0,23,-99.99,,,0.00,Acu-Link.com,2013-04-02 22:29:00,
2013-04-02 18:44:00,61.7,23.5,29.88,ENE,67,2.7,-999.0,23,-99.99,,,0.00,Acu-Link.com,2013-04-02 22:44:00,
2013-04-02 19:00:00,60.4,22.4,29.89,SSW,202,1.7,-999.0,23,-99.99,,,0.00,Acu-Link.com,2013-04-02 23:00:00,
2013-04-02 19:15:00,59.2,22.4,29.90,South,180,1.7,-999.0,24,-99.99,,,0.00,Acu-Link.com,2013-04-02 23:15:00,
2013-04-02 19:30:00,57.7,22.1,29.91,SSE,157,1.7,-999.0,25,-99.99,,,0.00,Acu-Link.com,2013-04-02 23:30:00,
2013-04-02 19:45:00,56.5,21.1,29.90,SSE,157,1.1,-999.0,25,-99.99,,,0.00,Acu-Link.com,2013-04-02 23:45:00,
2013-04-02 20:01:00,55.8,16.5,29.90,SW,225,1.7,-999.0,21,-99.99,,,0.00,Acu-Link.com,2013-04-03 00:01:00,
2013-04-02 20:46:00,53.8,20.6,29.92,SSW,202,2.2,-999.0,27,-99.99,,,0.00,Acu-Link.com,2013-04-03 00:46:00,
2013-04-02 21:17:00,53.1,24.0,29.92,SW,225,1.1,-999.0,32,-99.99,,,0.00,Acu-Link.com,2013-04-03 01:17:00,
2013-04-02 21:32:00,52.5,22.8,29.92,SW,225,1.7,-999.0,31,-99.99,,,0.00,Acu-Link.com,2013-04-03 01:32:00,
2013-04-02 22:02:00,51.8,25.7,29.93,SE,135,0.0,-999.0,36,-99.99,,,0.00,Acu-Link.com,2013-04-03 02:02:00,
2013-04-02 22:18:00,51.4,26.7,29.93,SE,135,2.2,-999.0,38,-99.99,,,0.00,Acu-Link.com,2013-04-03 02:18:00,
2013-04-02 22:48:00,50.9,27.4,29.92,SE,135,0.0,-999.0,40,-99.99,,,0.00,Acu-Link.com,2013-04-03 02:48:00,
2013-04-02 23:03:00,50.5,29.4,29.93,SE,135,0.0,-999.0,44,-99.99,,,0.00,Acu-Link.com,2013-04-03 03:03:00,
2013-04-02 23:34:00,50.7,26.0,29.92,South,180,1.7,-999.0,38,-99.99,,,0.00,Acu-Link.com,2013-04-03 03:34:00,
2013-04-02 23:49:00,50.5,25.9,29.93,SSW,202,2.2,-999.0,38,-99.99,,,0.00,Acu-Link.com,2013-04-03 03:49:00,